East Texas Regional Airport
KGGG : now visible

Airfield :











YOU CAN JOIN US ON...

 
LOGIN :

Register | Disclaimer

   EN    FR    IT 

 









Legend :    VFR   Marginal VFR   IFR   Intensive IFR   Very Intensive IFR
Visi :
Ceiling :
>= 8 km
>= 3000ft
5 to 8 km
1000 to 3000 ft
1500m to 5 km
500 to 1000 ft
800 to 1500m
200 to 500 ft
< 800m
< 200 ft
Symbols :   Thunderstorms  Fog  Heavy snow  Heavy precipitations  Wind > 20 kt






- Airport Elevation : 365 ft
- IATA code : GGG


KGGG - East Texas Regional

CURRENT METAR :
  • 212253Z 35006KT 10SM CLR 28/16 A3008 RMK AO2 SLP181 T02830161

EXPIRED METARs :
  • 212153Z 32006KT 10SM FEW075 29/16 A3007 RMK AO2 SLP179 T02940156
  • 212053Z 33007KT 10SM SCT075 30/16 A3008 RMK AO2 SLP179 T03000161 56018

TAF KGGG
Valid from the 21 at 18:00 until the 22 at 18:00 UTC


211741Z 2118/2218 35007KT P6SM FEW040 FEW250
FM220100 02004KT P6SM SKC
FM221500 09006KT P6SM SKC
KZFW FIR / North America



MET'MAP, your aeronautical weather chart ! - Copyright ORBIFLY December 2007 - Disclaimer

ORBIFLY MET'MAP TEAM :

Programming & Development : Alexandra Zaïnal
Concept & original design : Baudouin d'Aumeries
Assistance for programming : Marc-Olivier Méhu
Technical & hardware support : Manuel Goepfert

Contact : metmap@orbifly.com




SOURCES & CREDITS :

   NOAA       Earth
Advisory